EW9394 Weather Reports


time (UTC)temp
C
wind
direction
speed
KPH
gust
KPH
rain 1hr
cm
rain 24hr
cm
rain mn
cm
humidity
%
barometer
mb
20260509071102 21 208 1.6 1.6 0.00 0.00 0.00 92 1012.1
20260509070559 21 227 0.0 1.6 0.00 0.00 0.00 92 1012.1
20260509070055 21 213 0.0 0.0 0.00 0.00 0.00 92 1011.8
20260509065550 21 209 0.0 0.0 0.00 0.00 0.00 92 1011.8
20260509065047 21 212 1.6 1.6 0.00 0.00 0.00 92 1011.5
20260509064544 21 200 0.0 0.0 0.00 0.00 0.00 92 1011.3
20260509064042 21 182 3.2 3.2 0.00 0.00 0.00 92 1011.2
20260509063537 21 168 3.2 3.2 0.00 0.00 0.00 92 1011.2
20260509063035 21 202 0.0 0.0 0.00 0.00 0.00 92 1011.4
20260509062532 21 188 0.0 0.0 0.00 0.00 0.00 92 1011.4
20260509062030 21 191 0.0 0.0 0.00 0.00 0.00 91 1011.7
20260509061526 21 203 0.0 0.0 0.00 0.00 0.00 91 1011.5
20260509061024 21 180 1.6 1.6 0.00 0.00 0.00 91 1011.7
20260509060521 21 204 0.0 0.0 0.00 0.00 0.00 91 1012.2
20260509060017 21 194 0.0 0.0 0.00 0.00 0.00 90 1012.2
20260509055512 21 198 0.0 1.6 0.00 0.00 0.00 90 1012.0
20260509055009 21 229 0.0 0.0 0.00 0.00 0.00 89 1012.5
20260509054505 21 228 1.6 1.6 0.00 0.00 0.00 88 1012.2
20260509054004 21 189 1.6 1.6 0.00 0.00 0.00 88 1012.0
20260509053502 21 177 3.2 3.2 0.00 0.00 0.00 88 1012.4
20260509052958 21 235 0.0 1.6 0.00 0.00 0.00 88 1012.7
20260509052456 21 246 0.0 1.6 0.00 0.00 0.00 88 1012.8
20260509051954 21 267 1.6 1.6 0.00 0.00 0.00 88 1012.8
20260509051451 21 245 3.2 3.2 0.00 0.00 0.00 87 1012.4
20260509050948 21 191 0.0 0.0 0.00 0.00 0.00 87 1011.9
20260509050445 21 187 1.6 1.6 0.00 0.00 0.00 87 1011.7
20260509045941 21 177 3.2 3.2 0.00 0.03 0.03 86 1011.5
20260509045439 22 205 0.0 0.0 0.00 0.03 0.03 86 1011.4
20260509044935 22 193 1.6 1.6 0.00 0.03 0.03 85 1011.2
20260509044434 22 173 4.8 4.8 0.00 0.03 0.03 85 1011.0
20260509043931 22 189 1.6 1.6 0.00 0.03 0.03 85 1011.3
20260509043426 22 199 1.6 1.6 0.00 0.03 0.03 84 1011.3
20260509042921 22 182 0.0 1.6 0.00 0.03 0.03 84 1011.3
20260509042419 22 193 1.6 1.6 0.00 0.03 0.03 83 1010.9
20260509041915 22 211 6.4 8.0 0.00 0.03 0.03 83 1011.3
20260509041412 22 164 1.6 1.6 0.00 0.03 0.03 82 1011.6
20260509040910 22 137 3.2 3.2 0.00 0.03 0.03 81 1011.9
20260509040408 22 186 1.6 1.6 0.00 0.03 0.03 82 1012.2
20260509035905 22 213 0.0 0.0 0.00 0.03 0.03 82 1012.3
20260509035402 22 212 0.0 0.0 0.00 0.03 0.03 82 1012.3
20260509034858 22 206 0.0 0.0 0.00 0.03 0.03 82 1012.0
20260509034355 22 202 1.6 1.6 0.00 0.03 0.03 82 1012.3
20260509033852 22 198 0.0 0.0 0.00 0.03 0.03 82 1012.0
20260509033350 22 198 0.0 0.0 0.00 0.03 0.03 82 1011.9
20260509032846 22 205 0.0 0.0 0.00 0.03 0.03 82 1011.6
20260509032343 22 204 0.0 0.0 0.00 0.03 0.03 82 1011.4
20260509031842 22 200 1.6 3.2 0.00 0.03 0.03 82 1011.4
20260509031338 22 187 1.6 1.6 0.00 0.03 0.03 82 1011.4
20260509030836 22 174 1.6 1.6 0.00 0.03 0.03 82 1011.6
20260509030334 22 186 0.0 0.0 0.00 0.03 0.03 82 1011.6
20260509025831 22 182 0.0 1.6 0.00 0.03 0.03 82 1011.3
20260509025326 22 154 1.6 1.6 0.00 0.03 0.03 82 1011.2
20260509024821 22 187 0.0 1.6 0.00 0.03 0.03 82 1011.0
20260509024318 22 201 1.6 1.6 0.00 0.03 0.03 82 1010.7
20260509023815 22 145 3.2 3.2 0.00 0.03 0.03 82 1010.8
20260509023312 22 177 0.0 0.0 0.00 0.03 0.03 82 1010.8
20260509022809 22 176 0.0 1.6 0.00 0.03 0.03 81 1010.7
20260509022307 22 189 3.2 3.2 0.00 0.03 0.03 81 1010.6
20260509021803 22 178 3.2 3.2 0.00 0.03 0.03 80 1010.5
20260509021300 22 182 1.6 1.6 0.00 0.03 0.03 81 1010.6
20260509020757 22 182 0.0 0.0 0.00 0.03 0.03 81 1010.4
20260509020255 22 197 1.6 1.6 0.00 0.03 0.03 81 1010.5
20260509015753 22 191 0.0 0.0 0.00 0.03 0.03 80 1010.5
20260509015251 22 189 8.0 11.3 0.00 0.03 0.03 80 1010.6
20260509014747 22 180 3.2 8.0 0.00 0.03 0.03 80 1010.5
20260509014244 22 195 4.8 4.8 0.00 0.03 0.03 80 1010.4
20260509013741 22 183 3.2 3.2 0.00 0.03 0.03 80 1010.6
20260509013236 22 198 1.6 1.6 0.00 0.03 0.03 80 1010.3
20260509012733 22 192 1.6 3.2 0.00 0.03 0.03 80 1010.2
20260509012230 22 188 1.6 3.2 0.00 0.03 0.03 79 1010.3
20260509011727 22 197 1.6 1.6 0.00 0.03 0.03 79 1010.1
20260509011225 22 185 1.6 1.6 0.00 0.03 0.03 79 1010.0
20260509010723 22 193 3.2 4.8 0.00 0.03 0.03 79 1009.9
20260509010219 22 185 3.2 3.2 0.00 0.03 0.03 79 1009.9
20260509005716 22 192 1.6 3.2 0.00 0.03 0.03 78 1009.8
20260509005214 22 185 4.8 8.0 0.00 0.03 0.03 78 1009.9
20260509004713 22 187 1.6 1.6 0.00 0.03 0.03 78 1010.0
20260509004212 22 182 1.6 1.6 0.00 0.03 0.03 77 1010.0
20260509003709 22 200 0.0 1.6 0.00 0.03 0.03 77 1009.6
20260509003207 23 193 1.6 1.6 0.00 0.03 0.03 76 1009.6
20260509002704 23 180 1.6 4.8 0.00 0.03 0.03 76 1009.6
20260509002201 23 189 1.6 1.6 0.00 0.03 0.03 76 1009.7
20260509001659 23 137 3.2 3.2 0.00 0.03 0.03 75 1009.7
20260509001155 23 181 0.0 0.0 0.00 0.03 0.03 75 1010.0
20260509000653 23 214 4.8 4.8 0.00 0.03 0.03 74 1009.7
20260509000149 23 134 3.2 4.8 0.00 0.03 0.03 73 1009.9
20260508235647 23 175 3.2 3.2 0.00 0.03 0.03 73 1010.1
20260508235143 23 178 1.6 1.6 0.00 0.03 0.03 74 1010.1
20260508234641 23 192 1.6 1.6 0.00 0.03 0.03 74 1010.2
20260508234137 23 192 1.6 1.6 0.00 0.03 0.03 73 1010.0
20260508233636 23 151 3.2 3.2 0.00 0.03 0.03 72 1010.2
20260508233134 23 183 4.8 4.8 0.00 0.03 0.03 72 1010.2
20260508232631 23 159 3.2 4.8 0.00 0.03 0.03 72 1010.4
20260508232128 23 171 6.4 8.0 0.00 0.03 0.03 72 1010.2
20260508231625 24 175 4.8 8.0 0.00 0.03 0.03 71 1010.2
20260508231122 24 131 3.2 3.2 0.00 0.03 0.03 71 1010.1
20260508230618 23 176 6.4 9.7 0.00 0.03 0.03 71 1010.4
20260508230115 23 203 1.6 8.0 0.00 0.03 0.03 72 1010.4
20260508225613 23 186 4.8 9.7 0.00 0.03 0.03 72 1010.4
20260508225109 23 178 3.2 4.8 0.00 0.03 0.03 72 1010.4
20260508224607 23 161 4.8 8.0 0.00 0.03 0.03 72 1010.4
20260508224104 23 197 4.8 11.3 0.00 0.03 0.03 72 1010.1
20260508223602 24 202 8.0 9.7 0.00 0.03 0.03 70 1010.2
20260508223059 25 189 4.8 8.0 0.00 0.03 0.03 70 1010.2
20260508222556 25 94 3.2 4.8 0.00 0.03 0.03 69 1010.3
20260508222053 25 214 4.8 4.8 0.00 0.03 0.03 71 1010.2
20260508221549 25 211 6.4 8.0 0.00 0.03 0.03 70 1010.2
20260508221045 25 174 8.0 14.5 0.00 0.03 0.03 69 1010.1
20260508220542 25 198 4.8 8.0 0.00 0.03 0.03 69 1010.1
20260508220038 25 196 1.6 1.6 0.00 0.03 0.03 69 1010.1
20260508215535 25 198 8.0 9.7 0.00 0.03 0.03 68 1010.0
20260508215032 25 208 4.8 4.8 0.00 0.03 0.03 70 1010.2
20260508214529 25 124 1.6 3.2 0.00 0.03 0.03 70 1010.1
20260508214025 25 199 6.4 9.7 0.00 0.03 0.03 70 1010.1
20260508213523 24 187 1.6 3.2 0.00 0.03 0.03 71 1010.1
20260508213018 25 198 8.0 12.9 0.00 0.03 0.03 71 1010.1
20260508212515 24 146 3.2 4.8 0.00 0.03 0.03 72 1010.0
20260508212012 24 178 3.2 3.2 0.00 0.03 0.03 75 1010.2
20260508211507 23 213 4.8 4.8 0.00 0.03 0.03 78 1010.4
20260508211004 22 198 3.2 4.8 0.00 0.03 0.03 79 1010.8
20260508210501 22 186 3.2 3.2 0.00 0.03 0.03 81 1011.0
20260508205957 22 188 0.0 1.6 0.00 0.03 0.03 81 1011.4
20260508205454 22 167 3.2 4.8 0.00 0.03 0.03 80 1011.6
20260508204951 22 183 1.6 1.6 0.00 0.03 0.03 79 1011.6
20260508204448 23 185 1.6 1.6 0.00 0.03 0.03 75 1011.7
20260508203943 23 191 4.8 4.8 0.00 0.03 0.03 71 1012.2
20260508203440 23 183 1.6 3.2 0.00 0.03 0.03 71 1012.1
20260508202935 23 189 1.6 3.2 0.00 0.03 0.03 71 1012.1
20260508202433 23 192 3.2 3.2 0.00 0.03 0.03 71 1012.3
20260508201930 23 166 8.0 8.0 0.00 0.03 0.03 70 1012.0
20260508201426 23 169 1.6 3.2 0.00 0.03 0.03 70 1012.2
20260508200923 23 204 1.6 3.2 0.00 0.03 0.03 69 1012.0
20260508200420 24 185 3.2 3.2 0.00 0.03 0.03 68 1012.0
20260508195915 24 183 4.8 4.8 0.00 0.03 0.03 68 1012.0
20260508195412 24 190 3.2 4.8 0.00 0.03 0.03 68 1012.1
20260508194908 25 184 4.8 8.0 0.00 0.03 0.03 67 1012.1
20260508194406 25 176 4.8 8.0 0.00 0.03 0.03 66 1012.2
20260508193903 25 172 3.2 4.8 0.00 0.03 0.03 66 1012.0
20260508193359 25 179 4.8 4.8 0.00 0.03 0.03 65 1012.2
20260508192856 26 161 4.8 8.0 0.00 0.03 0.03 63 1012.1
20260508192353 26 243 1.6 1.6 0.00 0.03 0.03 64 1011.9
20260508191850 25 167 3.2 3.2 0.00 0.03 0.03 64 1011.9
20260508191348 26 173 6.4 11.3 0.00 0.03 0.03 65 1012.2
20260508190844 25 175 4.8 4.8 0.00 0.03 0.03 65 1012.3
20260508190341 25 171 3.2 4.8 0.00 0.03 0.03 64 1012.2
20260508185837 26 271 4.8 4.8 0.00 0.03 0.03 64 1012.4
20260508185335 26 196 1.6 3.2 0.00 0.03 0.03 63 1012.6
20260508184832 26 175 0.0 1.6 0.00 0.03 0.03 64 1012.4
20260508184329 25 229 3.2 3.2 0.00 0.03 0.03 63 1012.5
20260508183826 26 214 4.8 4.8 0.00 0.03 0.03 62 1012.4
20260508183323 26 229 3.2 3.2 0.00 0.03 0.03 62 1012.6
20260508182818 25 153 8.0 11.3 0.00 0.03 0.03 64 1012.9
20260508182315 25 162 1.6 1.6 0.00 0.03 0.03 64 1012.7
20260508181811 25 200 3.2 3.2 0.00 0.03 0.03 63 1013.0
20260508181308 25 208 4.8 4.8 0.00 0.03 0.03 62 1012.9
20260508180805 25 183 1.6 3.2 0.00 0.03 0.03 62 1013.0
20260508180302 25 178 4.8 8.0 0.00 0.03 0.03 62 1013.1
20260508175758 26 237 1.6 3.2 0.00 0.03 0.03 61 1013.1
20260508175255 25 112 1.6 3.2 0.00 0.03 0.03 63 1013.4
20260508174753 25 178 4.8 4.8 0.00 0.03 0.03 63 1013.5
20260508174250 25 190 4.8 4.8 0.00 0.03 0.03 60 1013.5
20260508173746 25 184 0.0 1.6 0.00 0.03 0.03 64 1013.5
20260508173242 25 157 3.2 4.8 0.00 0.03 0.03 63 1013.4
20260508172739 25 206 1.6 1.6 0.00 0.03 0.03 64 1013.6
20260508172236 24 276 6.4 8.0 0.00 0.03 0.03 62 1013.8
20260508171732 25 213 3.2 4.8 0.00 0.03 0.03 62 1013.9
20260508171228 23 140 1.6 1.6 0.00 0.03 0.03 64 1013.9
20260508170726 23 213 4.8 4.8 0.00 0.03 0.03 65 1014.5
20260508170223 23 184 1.6 4.8 0.00 0.03 0.03 66 1014.6
20260508165720 23 207 4.8 9.7 0.00 0.03 0.03 65 1014.6
20260508165218 23 183 0.0 1.6 0.00 0.03 0.03 65 1014.9
20260508164714 23 104 6.4 8.0 0.00 0.03 0.03 65 1014.9
20260508164210 22 148 1.6 3.2 0.00 0.03 0.03 67 1014.9
20260508163709 22 201 8.0 9.7 0.00 0.03 0.03 66 1015.1
20260508163206 22 214 8.0 11.3 0.00 0.03 0.03 66 1015.2
20260508162701 22 181 0.0 1.6 0.00 0.03 0.03 66 1015.0
20260508162158 22 203 3.2 3.2 0.00 0.03 0.03 66 1015.0
20260508161655 22 209 4.8 4.8 0.00 0.03 0.03 66 1015.2
20260508161153 22 190 4.8 4.8 0.00 0.03 0.03 66 1015.2
20260508160651 22 192 3.2 4.8 0.00 0.03 0.03 67 1015.4
20260508160149 22 190 4.8 8.0 0.00 0.03 0.03 68 1015.4
20260508155645 22 169 8.0 11.3 0.00 0.03 0.03 67 1015.3
20260508155142 22 185 4.8 8.0 0.00 0.03 0.03 68 1015.8
20260508154639 21 202 3.2 4.8 0.00 0.03 0.03 68 1015.6
20260508154136 21 196 1.6 1.6 0.00 0.03 0.03 69 1015.5
20260508153632 21 158 3.2 3.2 0.00 0.03 0.03 68 1015.7
20260508153130 20 202 6.4 8.0 0.00 0.03 0.03 70 1015.7
20260508152626 20 138 4.8 4.8 0.00 0.03 0.03 71 1015.7
20260508152121 20 196 4.8 4.8 0.00 0.03 0.03 72 1016.0
20260508151619 20 201 3.2 3.2 0.00 0.03 0.03 72 1016.0
20260508151115 20 184 3.2 3.2 0.00 0.03 0.03 72 1016.0
20260508150612 20 197 3.2 4.8 0.00 0.03 0.03 72 1016.0
20260508150109 20 197 4.8 4.8 0.00 0.03 0.03 70 1015.8
20260508145605 20 170 4.8 4.8 0.00 0.03 0.03 71 1015.6
20260508145102 20 195 1.6 1.6 0.00 0.03 0.03 71 1015.6
20260508144559 20 151 1.6 1.6 0.00 0.03 0.03 71 1015.4
20260508144051 20 173 3.2 3.2 0.00 0.03 0.03 71 1015.9
20260508143548 20 110 3.2 3.2 0.00 0.03 0.03 72 1015.9
20260508143045 20 194 1.6 1.6 0.00 0.03 0.03 73 1015.9
20260508142542 20 150 4.8 4.8 0.00 0.03 0.03 73 1016.1
20260508142038 19 140 4.8 4.8 0.00 0.03 0.03 72 1016.0
20260508141534 20 113 3.2 3.2 0.00 0.03 0.03 73 1016.1
20260508141032 20 109 3.2 4.8 0.00 0.03 0.03 71 1016.2
20260508140529 20 191 6.4 8.0 0.00 0.03 0.03 72 1016.3
20260508140026 19 114 3.2 3.2 0.00 0.03 0.03 74 1016.1
20260508135521 18 148 1.6 3.2 0.00 0.03 0.03 77 1016.2
20260508135018 18 186 0.0 1.6 0.00 0.03 0.03 79 1016.0
20260508134515 18 162 3.2 4.8 0.00 0.03 0.03 80 1015.9
20260508134012 18 152 0.0 1.6 0.00 0.03 0.03 82 1016.2
20260508133509 17 157 0.0 0.0 0.00 0.03 0.03 84 1015.8
20260508133006 17 170 1.6 1.6 0.00 0.03 0.03 85 1016.0
20260508132504 17 140 3.2 4.8 0.00 0.03 0.03 86 1016.1
20260508132000 17 162 1.6 1.6 0.00 0.03 0.03 86 1016.3
20260508131455 17 180 0.0 1.6 0.00 0.03 0.03 86 1016.4
20260508130952 17 176 0.0 1.6 0.00 0.03 0.03 86 1016.4
20260508130450 17 177 0.0 1.6 0.00 0.03 0.03 86 1016.2
20260508125945 17 164 1.6 1.6 0.00 0.03 0.03 86 1016.2
20260508125441 16 189 0.0 1.6 0.00 0.03 0.03 87 1016.4
20260508124939 16 189 0.0 0.0 0.00 0.03 0.03 88 1016.2
20260508124437 16 188 0.0 0.0 0.00 0.03 0.03 89 1016.2
20260508123934 16 189 0.0 0.0 0.00 0.03 0.03 89 1016.5
20260508123433 16 189 0.0 0.0 0.00 0.03 0.03 90 1016.5
20260508122929 16 189 0.0 0.0 0.00 0.03 0.03 91 1016.6
20260508122426 16 189 0.0 0.0 0.00 0.03 0.03 91 1016.3
20260508121923 16 189 0.0 0.0 0.00 0.03 0.03 91 1016.3
20260508121421 16 189 0.0 0.0 0.00 0.03 0.03 91 1016.4
20260508120918 16 189 0.0 0.0 0.00 0.03 0.03 92 1016.2
20260508120416 16 189 0.0 0.0 0.00 0.03 0.03 92 1016.4
20260508115913 16 186 0.0 0.0 0.00 0.03 0.03 92 1016.5
20260508115412 16 183 0.0 0.0 0.00 0.03 0.03 92 1016.3
20260508114907 16 183 0.0 0.0 0.00 0.03 0.03 92 1016.2
20260508114404 16 183 0.0 0.0 0.00 0.03 0.03 93 1016.3
20260508113901 16 183 0.0 0.0 0.00 0.03 0.03 93 1016.5
20260508113359 16 183 0.0 0.0 0.00 0.03 0.03 93 1016.4
20260508112856 16 177 1.6 1.6 0.00 0.03 0.03 93 1016.5
20260508112353 16 185 1.6 3.2 0.00 0.03 0.03 93 1016.4
20260508111849 16 187 3.2 3.2 0.00 0.03 0.03 93 1016.4
20260508111346 16 196 1.6 3.2 0.00 0.03 0.03 93 1016.7
20260508110843 15 200 1.6 3.2 0.00 0.03 0.03 93 1016.7
20260508110341 15 245 0.0 0.0 0.00 0.03 0.03 94 1017.0
20260508105840 16 271 0.0 0.0 0.00 0.03 0.03 94 1017.1
20260508105337 15 275 1.6 3.2 0.00 0.03 0.03 94 1017.0
20260508104834 15 218 0.0 0.0 0.00 0.03 0.03 94 1016.6
20260508104331 15 193 0.0 0.0 0.00 0.03 0.03 94 1016.3
20260508103829 15 192 0.0 0.0 0.00 0.03 0.03 93 1015.9
20260508103325 15 192 0.0 0.0 0.00 0.03 0.03 93 1015.8
20260508102823 15 192 0.0 0.0 0.00 0.03 0.03 93 1015.6
20260508102321 15 192 0.0 0.0 0.00 0.03 0.03 93 1015.5
20260508101818 15 192 0.0 0.0 0.00 0.03 0.03 93 1015.5
20260508101315 15 192 0.0 0.0 0.00 0.03 0.03 93 1015.5
20260508100813 15 191 0.0 0.0 0.00 0.03 0.03 93 1015.5
20260508100311 15 191 0.0 0.0 0.00 0.03 0.03 94 1015.5
20260508095806 15 192 0.0 0.0 0.00 0.03 0.03 94 1015.5
20260508095306 16 192 0.0 0.0 0.00 0.03 0.03 94 1015.4
20260508094801 15 192 0.0 0.0 0.00 0.03 0.03 94 1015.5
20260508094258 15 192 0.0 0.0 0.00 0.03 0.03 93 1015.6
20260508093755 16 192 0.0 0.0 0.00 0.03 0.03 93 1015.6
20260508093253 16 192 0.0 0.0 0.00 0.03 0.03 93 1015.9
20260508092749 16 192 0.0 0.0 0.00 0.03 0.03 93 1015.9
20260508092248 16 191 0.0 0.0 0.00 0.03 0.03 93 1015.6
20260508091745 16 191 0.0 0.0 0.00 0.03 0.03 93 1015.7
20260508091242 16 190 0.0 0.0 0.00 0.03 0.03 93 1015.7
20260508090740 16 190 0.0 0.0 0.00 0.03 0.03 92 1015.6
20260508090237 16 193 0.0 1.6 0.00 0.03 0.03 92 1015.8
20260508085733 16 193 0.0 0.0 0.00 0.03 0.03 92 1015.9
20260508085230 16 192 0.0 1.6 0.00 0.03 0.03 92 1015.6
20260508084726 16 184 0.0 0.0 0.00 0.03 0.03 92 1015.7
20260508084224 16 175 0.0 0.0 0.00 0.03 0.03 92 1015.7
20260508083721 16 145 4.8 8.0 0.00 0.03 0.03 93 1015.6
20260508083219 16 163 3.2 3.2 0.00 0.03 0.03 93 1016.2
20260508082713 16 195 0.0 0.0 0.00 0.03 0.03 92 1016.5
20260508082212 16 195 0.0 0.0 0.00 0.03 0.03 91 1016.7
20260508081709 16 195 0.0 0.0 0.00 0.03 0.03 90 1016.6
20260508081205 16 195 0.0 0.0 0.18 0.03 0.03 90 1016.7
20260508080702 16 222 0.0 0.0 0.18 0.03 0.03 88 1017.1
20260508080200 16 239 0.0 0.0 0.18 0.03 0.03 86 1017.2
20260508075656 16 240 1.6 1.6 0.00 0.00 0.00 85 1017.2
20260508075154 16 239 0.0 0.0 0.00 0.00 0.00 85 1017.2
20260508074651 16 244 0.0 0.0 0.00 0.00 0.00 85 1017.3
20260508074148 16 205 1.6 1.6 0.00 0.00 0.00 85 1017.0
20260508073645 16 189 0.0 0.0 0.00 0.00 0.00 85 1016.6
20260508073143 16 189 0.0 0.0 0.00 0.00 0.00 86 1016.5
20260508072638 16 189 0.0 0.0 0.00 0.00 0.00 86 1016.6
20260508072136 16 189 0.0 0.0 0.00 0.00 0.00 86 1016.8
20260508071633 16 189 0.0 0.0 0.00 0.00 0.00 87 1016.8